Wind_Speed
9 10 10 11 12 12 13 13 13 14 15 14 14 14 14 14 13 13 13 13 13 13 13 14 14 14 15 15 16 17 17 17 18 18 19 19 20 20 20 21 21 21 22
9 10 10 12 13 13 13 14 14 14 15 15 15 15 15 14 13 14 14 14 14 14 15 15 15 15 15 16 17 18 18 18 19 19 19 20 20 21 21 21 22 22 23
10 10 10 11 13 14 15 16 16 16 15 16 16 16 15 14 14 14 14 15 15 15 15 15 16 16 16 17 17 18 18 18 19 19 20 21 21 22 22 22 23 24 24
11 11 12 12 13 15 16 16 17 17 17 17 17 17 16 15 15 15 15 15 15 16 16 16 16 17 17 18 18 18 18 19 20 20 21 22 22 23 23 24 25 25 26
12 12 13 13 14 15 16 17 17 18 17 17 18 18 17 16 16 16 15 16 16 16 16 17 17 17 18 18 19 19 20 20 21 22 23 23 24 24 25 25 26 26 27
14 15 15 15 15 16 17 18 18 19 19 19 19 19 19 18 17 17 17 17 17 17 17 17 17 17 18 20 20 21 21 22 22 23 24 24 24 25 26 26 26 26 27
16 17 17 17 17 18 18 19 20 20 20 21 20 20 20 20 19 19 19 19 19 18 18 19 19 19 20 21 21 22 22 23 23 24 24 24 25 26 26 27 27 27 27
18 18 18 18 19 19 20 20 21 22 22 22 21 21 21 21 21 21 21 21 21 20 20 21 21 21 22 22 23 23 24 24 24 25 25 25 26 26 26 27 27 28 28
19 19 20 20 20 21 21 21 22 23 23 23 23 23 23 23 23 23 22 22 22 22 22 22 22 22 23 23 24 24 25 25 26 26 26 26 26 27 27 28 28 28 29
22 21 21 21 21 22 22 22 23 24 24 24 25 25 24 23 24 24 23 23 22 23 23 22 23 23 24 24 24 25 25 25 26 26 27 27 27 28 28 28 29 29 29
23 23 23 23 23 24 24 25 25 26 25 26 27 27 26 25 25 25 25 24 23 23 24 23 23 24 24 24 25 25 25 26 26 27 27 28 28 28 29 29 29 29 30
25 26 26 26 27 27 27 27 28 28 27 27 27 27 27 26 26 26 26 25 25 25 24 24 24 24 24 25 26 26 26 26 26 26 27 28 28 28 28 28 29 30 30
27 28 28 29 29 30 30 30 30 31 30 29 29 28 28 28 28 28 27 27 27 27 26 26 26 27 27 27 27 27 28 28 28 28 28 28 28 28 29 29 30 30 30
30 30 30 31 31 32 32 32 32 31 31 31 30 30 29 29 29 29 29 29 28 28 28 28 28 29 29 28 28 28 28 28 28 28 28 29 29 30 30 30 30 30 30
33 33 33 33 33 33 33 33 32 32 32 32 31 30 30 30 30 30 30 30 30 29 29 29 29 29 29 29 29 29 29 29 29 29 29 30 30 31 31 31 30 29 29
35 35 34 34 34 34 34 34 34 33 33 33 32 31 30 31 31 30 31 31 30 30 30 29 30 31 31 31 30 30 29 29 30 30 31 31 31 31 31 31 31 30 30
37 37 35 35 35 35 34 35 35 34 33 32 32 32 32 31 31 31 32 31 31 30 30 30 31 31 32 31 31 31 31 31 31 31 31 31 30 31 32 31 31 30 30
37 36 35 34 35 36 35 35 34 34 33 33 33 33 33 33 32 32 33 32 31 31 31 31 31 31 31 32 32 32 32 32 32 31 31 30 31 31 31 31 31 30 30
37 37 37 36 36 36 35 35 35 34 34 34 34 34 34 33 34 34 34 33 33 32 32 32 32 32 32 32 32 32 32 32 32 32 31 31 32 32 31 31 31 30 30
37 36 36 36 37 36 36 36 35 34 34 35 35 34 34 34 35 34 34 33 33 33 32 32 32 32 33 33 33 32 32 33 33 32 32 31 32 31 31 31 31 31 31
37 36 36 36 36 36 36 36 35 35 35 35 35 35 35 35 35 34 35 34 34 34 33 34 34 34 34 33 33 33 33 32 32 32 32 32 32 31 32 32 32 31 31
38 36 35 35 35 35 35 36 36 35 36 35 35 35 35 35 35 35 35 35 35 34 35 35 35 35 34 33 33 33 32 32 32 32 32 32 32 31 31 32 32 32 32
35 34 34 34 35 34 35 36 36 35 34 35 35 35 35 35 35 35 35 35 35 35 35 34 34 33 33 33 33 33 32 31 31 31 31 32 32 32 32 31 32 32 32
34 33 33 33 34 34 34 34 34 34 33 34 34 34 35 35 35 35 35 34 34 34 33 33 33 32 32 32 32 32 31 31 32 32 32 32 32 32 32 32 32 32 32
33 33 33 33 33 33 33 33 33 33 33 33 33 34 34 34 33 33 32 32 32 31 32 32 31 30 30 31 31 32 32 32 32 32 32 32 32 32 32 32 32 32 32
33 33 33 33 32 32 32 33 33 33 32 33 33 33 33 33 32 32 32 32 31 31 31 31 30 30 30 31 31 31 31 30 30 30 30 31 31 31 32 32 32 32 31
Wind_Direction
1 2 3 3 0 358 356 354 354 353 351 349 344 338 332 328 321 314 308 303 299 297 295 294 294 290 287 287 288 290 290 290 291 292 293 293 294 294 294 294 294 296 297
347 347 348 350 352 349 346 346 345 346 346 345 340 335 332 328 322 316 311 307 304 301 300 296 295 295 291 291 292 292 292 291 291 292 293 295 295 295 294 293 294 294 294
331 333 334 336 342 345 343 341 342 341 339 339 339 336 332 329 325 319 313 310 306 303 301 299 297 296 295 294 294 293 293 293 293 293 294 295 296 295 295 294 294 294 294
325 328 329 332 335 337 338 338 338 338 334 334 336 333 328 325 324 320 316 310 308 306 302 300 298 296 295 295 294 293 293 293 293 294 294 295 296 296 296 295 296 296 296
319 321 322 326 329 332 333 334 335 337 336 335 334 333 329 325 323 321 317 312 309 306 303 302 300 297 296 295 294 293 292 292 293 293 294 294 294 295 295 295 295 296 297
313 317 316 317 321 325 327 328 328 330 331 332 331 330 328 325 321 320 317 314 310 307 304 302 300 298 297 296 295 294 293 294 293 294 295 295 294 294 295 295 295 295 296
307 310 312 312 315 317 319 321 322 323 325 325 325 326 326 324 320 316 315 313 311 307 304 301 299 298 297 297 296 296 296 295 295 295 296 294 295 295 294 295 294 294 294
300 303 307 309 310 311 312 314 317 318 319 320 320 321 320 320 319 315 312 311 309 307 305 301 298 297 297 296 296 296 296 297 296 296 295 294 294 295 294 294 294 294 294
293 298 303 305 306 306 307 308 312 315 317 316 316 317 316 315 316 313 308 307 307 306 305 303 300 298 298 298 297 296 295 296 296 296 296 295 294 295 295 295 295 295 295
290 294 299 301 304 305 303 304 306 310 313 314 313 313 315 315 315 315 311 307 306 305 304 303 302 299 299 298 297 298 297 297 297 296 295 295 295 296 297 296 296 296 296
286 289 293 297 300 301 302 303 304 307 309 309 310 310 311 312 313 314 312 308 304 303 303 301 300 299 298 298 298 298 299 299 298 297 296 296 296 297 297 297 296 296 296
283 286 289 292 295 298 300 300 301 303 304 305 308 309 309 309 310 312 312 308 305 304 303 301 301 300 298 299 300 299 298 298 298 297 297 297 297 297 297 297 297 297 297
281 284 287 289 292 294 296 297 299 301 301 300 303 305 306 306 307 308 309 309 306 304 302 301 301 300 300 298 298 298 298 298 297 297 298 298 298 297 296 297 297 298 297
282 283 285 288 290 291 292 294 295 297 299 298 298 301 302 303 304 305 305 306 306 305 304 303 302 301 300 299 299 299 298 298 297 297 298 298 298 297 297 297 298 299 299
280 282 284 287 289 291 292 291 292 294 296 296 296 297 299 301 302 303 304 303 302 303 303 302 300 300 299 299 298 297 297 297 297 297 298 298 298 297 297 297 297 297 297
278 281 284 287 289 289 289 289 291 291 292 293 294 296 298 300 302 303 303 303 301 301 301 300 299 299 298 298 298 297 297 296 297 297 297 297 297 298 298 298 297 297 297
278 280 283 285 288 289 288 289 290 291 292 292 293 294 296 297 299 301 301 302 302 300 299 299 299 299 297 297 297 296 296 296 297 297 297 296 296 297 298 298 298 297 297
277 280 282 284 287 287 287 288 290 290 290 290 291 292 294 295 297 298 299 300 300 300 300 299 299 298 298 298 297 296 296 297 297 297 296 296 296 297 298 298 298 297 297
277 279 282 285 288 287 286 285 287 288 289 289 290 291 292 294 296 297 297 298 298 298 298 298 298 298 298 299 298 297 297 297 296 295 295 295 296 297 296 297 297 296 296
277 279 281 284 285 285 286 285 286 288 289 289 291 291 292 293 295 295 296 296 297 297 297 297 298 298 298 298 297 297 296 296 295 295 295 295 295 296 296 296 297 296 296
276 278 281 282 284 284 285 288 286 287 289 290 291 291 292 293 294 294 295 295 296 296 296 296 296 297 297 297 297 296 296 296 296 296 296 296 296 296 296 296 296 295 295
276 277 278 280 283 285 286 289 287 286 288 290 291 291 291 292 293 293 293 294 295 295 295 295 296 297 297 296 296 295 295 296 297 298 298 297 296 296 295 295 295 295 295
274 277 279 282 285 286 288 289 288 287 288 289 290 290 292 292 291 291 292 293 294 295 295 296 297 297 297 296 296 295 295 296 297 297 297 297 297 296 295 294 295 296 295
276 279 281 284 285 287 288 288 289 288 288 289 290 290 291 291 291 291 292 293 294 294 295 296 296 296 296 296 296 296 296 297 297 296 296 296 296 296 295 296 296 296 296
279 281 282 284 285 287 288 288 288 289 289 290 291 291 291 291 291 291 292 292 293 294 295 295 295 295 296 297 297 297 297 298 298 297 297 297 296 296 296 296 297 297 297
280 281 282 283 285 286 288 288 288 289 289 290 290 291 291 291 291 292 291 291 292 293 295 295 294 295 296 297 298 298 298 298 298 298 297 297 298 298 298 298 297 297 297
Height
5913 5911 5910 5908 5906 5904 5902 5899 5897 5894 5892 5889 5887 5884 5882 5880 5878 5876 5875 5873 5872 5870 5869 5868 5866 5865 5864 5863 5861 5860 5859 5858 5856 5855 5853 5851 5849 5847 5845 5844 5842 5840 5838
5912 5911 5909 5907 5905 5903 5900 5898 5895 5893 5890 5887 5885 5882 5880 5878 5875 5874 5872 5870 5868 5867 5865 5864 5863 5861 5860 5859 5857 5856 5854 5853 5851 5850 5848 5846 5844 5842 5840 5839 5837 5835 5833
5911 5909 5908 5906 5904 5902 5899 5897 5893 5890 5888 5885 5882 5880 5877 5875 5872 5870 5869 5867 5865 5863 5862 5860 5859 5858 5856 5855 5853 5851 5850 5848 5847 5845 5843 5841 5839 5837 5835 5833 5831 5829 5827
5910 5908 5906 5905 5903 5900 5898 5895 5892 5889 5886 5883 5880 5878 5875 5872 5870 5868 5866 5864 5862 5860 5858 5856 5855 5853 5852 5850 5848 5847 5845 5843 5842 5840 5838 5836 5834 5832 5830 5828 5825 5823 5820
5909 5907 5905 5903 5901 5899 5896 5893 5890 5887 5884 5881 5878 5876 5873 5870 5867 5865 5863 5860 5858 5856 5855 5853 5851 5849 5847 5845 5844 5842 5840 5838 5836 5834 5832 5830 5828 5826 5824 5821 5819 5816 5813
5907 5905 5902 5900 5898 5896 5894 5891 5888 5885 5882 5879 5876 5873 5870 5867 5864 5862 5859 5857 5854 5852 5850 5848 5846 5844 5843 5841 5839 5837 5835 5833 5831 5829 5826 5824 5822 5819 5817 5814 5812 5809 5807
5904 5902 5900 5898 5895 5893 5891 5888 5886 5883 5879 5876 5873 5870 5867 5864 5861 5858 5856 5853 5850 5848 5846 5844 5842 5840 5838 5836 5833 5831 5829 5827 5825 5822 5820 5817 5815 5813 5810 5807 5805 5802 5799
5900 5899 5897 5895 5892 5890 5887 5885 5882 5879 5876 5873 5869 5866 5863 5860 5857 5854 5851 5848 5845 5843 5841 5838 5836 5834 5832 5829 5827 5825 5823 5820 5818 5815 5813 5811 5808 5806 5803 5800 5797 5795 5792
5896 5894 5893 5890 5888 5885 5883 5881 5878 5875 5872 5868 5865 5862 5859 5856 5852 5848 5845 5842 5840 5837 5835 5832 5830 5828 5825 5823 5821 5818 5816 5814 5811 5809 5806 5804 5801 5798 5796 5793 5790 5787 5784
5891 5890 5888 5886 5883 5880 5878 5876 5873 5870 5867 5864 5861 5858 5854 5851 5847 5842 5838 5836 5834 5831 5829 5826 5824 5821 5819 5816 5814 5812 5809 5806 5804 5802 5799 5797 5794 5791 5788 5785 5782 5779 5776
5885 5885 5883 5881 5879 5876 5874 5871 5868 5865 5862 5859 5856 5852 5849 5845 5841 5838 5834 5831 5828 5825 5822 5819 5817 5815 5812 5810 5807 5805 5802 5799 5797 5794 5791 5789 5786 5783 5780 5777 5774 5771 5768
5879 5878 5877 5875 5872 5870 5868 5865 5862 5859 5856 5853 5849 5846 5843 5839 5836 5832 5829 5825 5822 5819 5816 5813 5810 5808 5805 5803 5800 5797 5795 5792 5789 5786 5784 5781 5778 5775 5772 5770 5766 5763 5760
5872 5871 5869 5867 5865 5863 5860 5858 5855 5852 5849 5846 5843 5840 5837 5833 5830 5826 5823 5819 5816 5813 5810 5807 5804 5801 5799 5796 5793 5790 5787 5784 5781 5779 5776 5773 5770 5767 5764 5761 5758 5755 5752
5865 5864 5862 5860 5857 5855 5852 5850 5847 5844 5841 5838 5835 5832 5829 5826 5823 5819 5816 5813 5809 5806 5803 5800 5797 5794 5791 5788 5785 5782 5779 5776 5773 5771 5768 5765 5762 5759 5756 5753 5750 5747 5743
5857 5855 5853 5851 5848 5846 5844 5842 5839 5836 5833 5831 5828 5825 5822 5819 5815 5812 5808 5805 5802 5799 5795 5792 5789 5786 5783 5780 5777 5774 5771 5768 5765 5762 5759 5757 5753 5750 5747 5744 5741 5738 5735
5848 5846 5844 5842 5840 5837 5835 5833 5830 5828 5825 5822 5819 5817 5814 5811 5808 5804 5801 5797 5794 5791 5787 5784 5781 5778 5775 5772 5769 5766 5763 5760 5757 5754 5751 5748 5745 5742 5739 5736 5732 5729 5727
5838 5836 5834 5832 5830 5827 5825 5824 5821 5818 5815 5813 5810 5807 5805 5802 5799 5796 5793 5790 5786 5783 5779 5776 5773 5770 5767 5764 5760 5757 5754 5751 5748 5745 5742 5739 5736 5733 5730 5727 5724 5721 5718
5828 5825 5824 5822 5820 5818 5816 5814 5812 5809 5806 5804 5801 5798 5796 5793 5790 5787 5784 5781 5778 5775 5771 5768 5764 5761 5758 5755 5751 5748 5746 5742 5739 5736 5733 5730 5727 5724 5721 5718 5715 5712 5709
5818 5816 5814 5812 5810 5808 5806 5804 5801 5799 5796 5794 5791 5789 5786 5783 5781 5778 5775 5772 5769 5766 5762 5759 5755 5752 5749 5746 5743 5739 5736 5733 5730 5727 5724 5721 5718 5715 5712 5709 5706 5703 5700
5807 5805 5804 5802 5800 5798 5796 5793 5791 5789 5786 5784 5781 5779 5776 5774 5771 5768 5765 5762 5759 5756 5753 5750 5746 5743 5740 5737 5733 5730 5727 5724 5721 5718 5715 5712 5709 5706 5703 5700 5697 5694 5691
5796 5794 5793 5791 5789 5787 5785 5783 5781 5778 5776 5774 5771 5769 5766 5763 5761 5758 5755 5752 5749 5746 5743 5740 5737 5733 5730 5727 5724 5721 5718 5714 5711 5708 5706 5703 5700 5697 5694 5691 5688 5685 5682
5784 5783 5782 5780 5779 5777 5775 5773 5770 5767 5766 5763 5761 5758 5756 5753 5750 5748 5745 5742 5739 5736 5733 5730 5727 5723 5720 5717 5714 5711 5708 5705 5702 5700 5697 5694 5691 5688 5685 5682 5679 5676 5673
5773 5772 5771 5770 5768 5766 5764 5762 5759 5757 5755 5753 5750 5748 5745 5742 5740 5737 5735 5732 5729 5726 5723 5719 5716 5713 5710 5707 5704 5701 5699 5696 5693 5691 5688 5684 5682 5679 5676 5673 5670 5667 5664
5763 5762 5761 5759 5758 5756 5754 5751 5749 5747 5745 5743 5740 5737 5735 5732 5729 5727 5724 5721 5719 5716 5713 5710 5707 5704 5701 5698 5695 5692 5689 5687 5684 5681 5678 5675 5672 5669 5666 5663 5660 5657 5654
5753 5751 5750 5749 5747 5745 5743 5741 5739 5737 5735 5732 5729 5727 5724 5721 5719 5716 5713 5711 5708 5706 5703 5700 5697 5694 5691 5689 5686 5683 5680 5678 5674 5671 5669 5666 5663 5660 5657 5654 5651 5647 5644
5743 5741 5740 5738 5737 5735 5733 5731 5729 5727 5724 5722 5719 5717 5714 5711 5709 5706 5703 5701 5699 5696 5694 5691 5688 5685 5682 5680 5677 5674 5671 5668 5665 5662 5659 5656 5653 5650 5647 5644 5641 5638 5635